Location: Cambroso
(45.2833°N, 12.0850°E)
Time: 10:32:03
(UTC+00:00)

Lacrosse 5 - Pass Details

Date: 21 January 2021
Orbit: 715 x 724 km, 57.0° (Epoch: 28 February)

Event Time Altitude Azimuth Distance (km) Brightness Sun altitude
Rises 18:24:52 0° 307° (NW) 3,122 5.9 -24.6°
Reaches altitude 10° 18:27:18 10° 301° (WNW) 2,199 5.1 -25.0°
Maximum altitude 18:32:08 47° 229° (SW) 950 2.7 -25.9°
Enters shadow 18:34:02 32° 178° (S) 1,227 3.0 -26.2°
